Location: Владивосток
(43.1151°N, 131.8856°E)
Time: 11:24:58
(UTC+10:00)

PRISM - Pass Details

Date: 16 April 2024
Orbit: 504 x 519 km, 98.2° (Epoch: 20 May)

Event Time Altitude Azimuth Distance (km) Brightness Sun altitude
Exits shadow 21:32:46 - 192° (SSW) 2,115 ? -16.9°
Reaches altitude 10° 21:33:45 10° 198° (SSW) 1,736 ? -17.0°
Maximum altitude 21:37:07 31° 262° (W) 917 ? -17.5°
Drops below altitude 10° 21:40:28 10° 326° (NW) 1,735 ? -18.0°
Sets 21:42:44 0° 337° (NNW) 2,622 ? -18.4°
